Weather History for Augusta, GA

Change the Weather History Date:

Wednesday, February 20, 2013

  Actual Average Record
Temperature  
Mean Temperature 47 °F -  
Max Temperature 60 °F 58 °F 82 °F (2014)
Min Temperature 34 °F 40 °F 32 °F (2009)
Degree Days  
Heating Degree Days 18    
Month to date heating degree days 324  
Moisture  
Dew Point 18 °F    
Average Humidity 35    
Maximum Humidity 56    
Minimum Humidity 17    
Precipitation  
Precipitation 0.00 in - - ()
Month to date precipitation 5.78  
Year to date precipitation 6.84  
Sea Level Pressure  
Sea Level Pressure 30.12 in    
Wind  
Wind Speed 4 mph (WNW)    
Max Wind Speed 12 mph    
Max Gust Speed 18 mph    
Visibility 10 miles    
Events      
Averages and records for this station are not official NWS values.
T = Trace of Precipitation, MM = Missing Value Source: NWS Daily Summary

Daily Weather History Graph

Daily Weather History Graph

Search for Another Location

Airport:

Trip Planner

Search our weather history database for the weather conditions in past years. The results will help you decide how hot, cold, wet, or windy it might be!

Date:

Astronomy

Feb. 20, 2013 Rise Set
Actual Time 7:06 AM EST 6:17 PM EST
Civil Twilight 6:41 AM EST 6:42 PM EST
Nautical Twilight 6:12 AM EST 7:11 PM EST
Astronomical Twilight 5:43 AM EST 7:40 PM EST
Moon 1:46 PM EST (2/20) 3:17 AM EST (2/20)
Length of Visible Light 12h 01m
Length of Day
11h 10m
Waxing Gibbous, 76% of the Moon is Illuminated
Feb 20
Waxing Gibbous
Feb 25
Full
Mar 4
Last Quarter
Mar 11
New
Mar 19
First Quarter

Hourly Weather History & Observations

Time (EST) Temp. Windchill Dew Point Humidity Pressure Visibility Wind Dir Wind Speed Gust Speed Precip Events Conditions
12:53 AM 45.0 °F 39.7 °F 21.9 °F 40% 30.10 in 10.0 mi WNW 10.4 mph - N/A   Clear
1:53 AM 43.0 °F 38.2 °F 19.9 °F 40% 30.10 in 10.0 mi West 8.1 mph 16.1 mph N/A   Clear
2:53 AM 41.0 °F 37.1 °F 19.9 °F 43% 30.10 in 10.0 mi West 5.8 mph - N/A   Clear
3:53 AM 39.0 °F 36.8 °F 19.0 °F 45% 30.10 in 10.0 mi West 3.5 mph - N/A   Clear
4:53 AM 37.9 °F 32.7 °F 19.0 °F 47% 30.10 in 10.0 mi WNW 6.9 mph - N/A   Clear
5:53 AM 36.0 °F 32.1 °F 19.0 °F 50% 30.12 in 10.0 mi West 4.6 mph - N/A   Clear
6:53 AM 34.0 °F 28.8 °F 19.0 °F 54% 30.13 in 10.0 mi WNW 5.8 mph - N/A   Clear
7:53 AM 35.1 °F - 19.9 °F 54% 30.16 in 10.0 mi Calm Calm - N/A   Clear
8:53 AM 39.0 °F 32.8 °F 18.0 °F 43% 30.17 in 10.0 mi WNW 9.2 mph - N/A   Clear
9:53 AM 43.0 °F 40.3 °F 17.1 °F 35% 30.18 in 10.0 mi NW 4.6 mph - N/A   Clear
10:53 AM 46.0 °F 44.8 °F 16.0 °F 30% 30.16 in 10.0 mi NW 3.5 mph - N/A   Clear
11:53 AM 48.9 °F - 15.1 °F 26% 30.14 in 10.0 mi South 3.5 mph - N/A   Clear
12:53 PM 53.1 °F - 14.0 °F 21% 30.10 in 10.0 mi Calm Calm - N/A   Clear
1:53 PM 55.0 °F - 15.1 °F 21% 30.09 in 10.0 mi Variable 6.9 mph - N/A   Clear
2:53 PM 59.0 °F - 15.1 °F 18% 30.07 in 10.0 mi Variable 5.8 mph - N/A   Clear
5:53 PM 57.0 °F - 17.1 °F 21% 30.11 in 10.0 mi WNW 5.8 mph - N/A   Partly Cloudy
6:53 PM 55.0 °F - 19.0 °F 24% 30.10 in 10.0 mi Calm Calm - N/A   Overcast
8:53 PM 52.0 °F - 18.0 °F 26% 30.07 in 10.0 mi WNW 3.5 mph - N/A   Clear
9:53 PM 50.0 °F - 17.1 °F 27% 30.11 in 10.0 mi WNW 6.9 mph - N/A   Clear
11:53 PM 46.0 °F - 18.0 °F 33% 30.10 in 10.0 mi Calm Calm - N/A   Clear